Change the Weather History Date:

Friday, September 26, 2014

  Actual Average Record
Temperature  
Mean Temperature 68 °F 70 °F  
Max Temperature 72 °F 81 °F 89 °F (2007)
Min Temperature 64 °F 59 °F 46 °F (2001)
Degree Days  
Heating Degree Days 0 1  
Month to date heating degree days 6 4  
Since 1 July heating degree days 6 4  
Cooling Degree Days 3 6  
Month to date cooling degree days 281 227  
Year to date cooling degree days 1938 1799  
Growing Degree Days 18 (Base 50)    
Moisture  
Dew Point 63 °F    
Average Humidity 89    
Maximum Humidity 100    
Minimum Humidity 78    
Precipitation  
Precipitation 0.00 in 0.16 in 2.40 in (2010)
Month to date precipitation 3.68 4.17  
Year to date precipitation 35.84 34.56  
Sea Level Pressure  
Sea Level Pressure 30.15 in    
Wind  
Wind Speed 8 mph (NE)    
Max Wind Speed 15 mph    
Max Gust Speed 20 mph    
Visibility 10 miles    
Events      
T = Trace of Precipitation, MM = Missing Value Source: NWS Daily Summary

Daily Weather History Graph

Daily Weather History Graph

Search for Another Location

Airport or City:

Trip Planner

Search our weather history database for the weather conditions in past years. The results will help you decide how hot, cold, wet, or windy it might be!

Date:

Astronomy

Sep. 26, 2014 Rise Set
Actual Time 7:07 AM EDT 7:07 PM EDT
Civil Twilight 6:42 AM EDT 7:32 PM EDT
Nautical Twilight 6:12 AM EDT 8:01 PM EDT
Astronomical Twilight 5:43 AM EDT 8:31 PM EDT
Moon 9:15 AM EDT (9/26) 8:33 PM EDT (9/26)
Length of Visible Light 12h 50m
Length of Day
12h 00m
Waxing Crescent, 6% of the Moon is Illuminated
Sep 26
Waxing Crescent
Oct 1
First Quarter
Oct 8
Full
Oct 15
Last Quarter
Oct 23
New

Hourly Weather History & Observations

Time (EDT) Temp. Dew Point Humidity Pressure Visibility Wind Dir Wind Speed Gust Speed Precip Events Conditions
12:54 AM 64.9 °F 63.0 °F 93% 30.16 in 10.0 mi NNE 4.6 mph - N/A   Overcast
1:30 AM 64.9 °F 63.0 °F 93% 30.16 in 10.0 mi NNE 6.9 mph - N/A   Overcast
1:54 AM 64.9 °F 63.0 °F 93% 30.16 in 10.0 mi NE 6.9 mph - N/A   Overcast
2:45 AM 64.9 °F 62.1 °F 90% 30.15 in 10.0 mi NNE 8.1 mph - N/A   Overcast
2:54 AM 64.9 °F 62.1 °F 90% 30.14 in 10.0 mi NNE 9.2 mph - N/A   Overcast
3:54 AM 64.0 °F 62.1 °F 93% 30.13 in 10.0 mi NNE 8.1 mph - N/A   Overcast
4:54 AM 64.9 °F 62.1 °F 90% 30.12 in 10.0 mi NNE 10.4 mph - N/A   Overcast
5:33 AM 64.9 °F 62.1 °F 90% 30.12 in 10.0 mi NE 10.4 mph - N/A   Overcast
5:54 AM 64.9 °F 63.0 °F 93% 30.12 in 10.0 mi NNE 12.7 mph - N/A   Overcast
6:54 AM 64.9 °F 63.0 °F 93% 30.14 in 10.0 mi NE 10.4 mph - N/A   Overcast
7:54 AM 64.9 °F 63.0 °F 93% 30.15 in 10.0 mi NE 10.4 mph - N/A   Overcast
8:27 AM 64.9 °F 63.0 °F 93% 30.16 in 6.0 mi NE 9.2 mph - N/A   Overcast
8:47 AM 64.9 °F 64.0 °F 97% 30.16 in 5.0 mi NNE 9.2 mph - N/A   Overcast
8:54 AM 64.9 °F 64.0 °F 97% 30.17 in 6.0 mi NNE 6.9 mph - N/A   Overcast
9:46 AM 66.0 °F 64.0 °F 93% 30.17 in 10.0 mi NE 10.4 mph - N/A   Overcast
9:54 AM 66.9 °F 63.0 °F 87% 30.17 in 10.0 mi NE 10.4 mph - N/A   Overcast
10:18 AM 66.9 °F 64.0 °F 90% 30.17 in 10.0 mi NE 8.1 mph - N/A   Overcast
10:54 AM 68.0 °F 64.0 °F 87% 30.17 in 10.0 mi NE 13.8 mph 17.3 mph N/A   Overcast
11:54 AM 68.0 °F 63.0 °F 84% 30.17 in 10.0 mi NE 11.5 mph - N/A   Overcast
12:54 PM 70.0 °F 64.0 °F 81% 30.17 in 10.0 mi NE 9.2 mph - N/A   Overcast
1:14 PM 72.0 °F 64.0 °F 76% 30.16 in 10.0 mi ENE 13.8 mph - N/A   Overcast
1:54 PM 72.0 °F 64.0 °F 76% 30.15 in 10.0 mi NE 10.4 mph 17.3 mph N/A   Overcast
2:54 PM 72.0 °F 64.0 °F 76% 30.14 in 10.0 mi ENE 6.9 mph - N/A   Overcast
3:54 PM 70.0 °F 64.0 °F 81% 30.14 in 10.0 mi NNE 8.1 mph - N/A   Overcast
4:54 PM 71.1 °F 64.0 °F 78% 30.14 in 10.0 mi NE 10.4 mph - N/A   Overcast
5:54 PM 70.0 °F 63.0 °F 78% 30.14 in 10.0 mi NE 9.2 mph - N/A   Overcast
6:54 PM 69.1 °F 63.0 °F 81% 30.14 in 10.0 mi NE 8.1 mph - N/A   Overcast
7:54 PM 69.1 °F 62.1 °F 78% 30.15 in 10.0 mi NNE 5.8 mph - N/A   Overcast
8:15 PM 66.9 °F 62.1 °F 84% 30.15 in 10.0 mi NE 5.8 mph - N/A   Scattered Clouds
8:54 PM 64.9 °F 62.1 °F 90% 30.14 in 10.0 mi NNE 4.6 mph - N/A   Clear
9:54 PM 64.9 °F 62.1 °F 90% 30.15 in 10.0 mi North 4.6 mph - N/A   Overcast
10:54 PM 66.0 °F 62.1 °F 87% 30.17 in 10.0 mi North 3.5 mph - N/A   Overcast
11:54 PM 66.0 °F 63.0 °F 90% 30.17 in 10.0 mi NNE 3.5 mph - N/A   Overcast